[[{"header":{"parameterUnit":"m.s-1","parameterCategory":1,"la1":30.2991,"la2":30.254,"lo1":-89.0895,"lo2":-89.0444,"dy":0.0017,"dx":0.0017,"nx":28,"ny":28,"refTime":"2024-07-07T21:00:00:Z","depth":0,"parameterNumber":2,"parameterNumberName":"U-component_of_WINDS"},"data":[0,0,0,0,0,0,0,0,0,0,0,0,0,0,0,0,0,0,0,0,0,0,0,0,0,0,0,0,0,0,0,0,0,0,0,0,0,0,0,0,0,0,0,0,0,0,0,0,0,0,0,0,0,0,0,0,0,0,-2.2114,-2.2115,0,-2.2159,-2.216,-2.216,-2.2143,-2.2142,-2.2141,-2.214,-2.2188,-2.2191,-2.2193,0,0,0,0,0,0,0,0,0,0,0,0,0,-2.2014,-2.2016,-2.2114,-2.2115,-2.2115,-2.2159,-2.216,-2.2161,-2.2144,-2.2142,-2.2141,-2.214,-2.2188,-2.219,-2.2193,0,0,0,0,0,0,0,0,0,0,0,0,0,-2.2059,-2.2017,-2.2114,-2.2112,-2.2112,-2.2159,-2.216,-2.2161,-2.2144,-2.2142,-2.2141,-2.2139,-2.2187,-2.219,-2.2193,-2.2246,0,0,-2.2204,-2.2205,0,0,0,0,0,0,0,0,-2.2056,-2.2062,-2.2112,-2.2112,-2.2113,-2.2144,-2.2142,-2.2189,-2.2144,-2.2132,-2.214,-2.2139,-2.2175,-2.2179,-2.2191,-2.2248,-2.225,-2.2204,-2.2206,-2.2208,-2.2209,0,0,0,0,0,0,0,-2.2053,-2.206,-2.2132,-2.2112,-2.2113,-2.2109,-2.2114,-2.2151,-2.2162,-2.2133,-2.2132,-2.2137,-2.2175,-2.2188,-2.2192,-2.2251,-2.2204,-2.2207,-2.2209,-2.221,-2.2352,-2.2353,0,0,0,0,0,0,-2.205,-2.2058,-2.2131,-2.2133,-2.208,-2.2112,-2.2117,-2.2136,-2.2161,-2.2164,-2.2139,-2.2136,-2.2183,-2.2188,-2.2194,-2.2256,-2.2208,-2.2211,-2.2213,-2.235,-2.2352,-2.2354,0,0,0,0,0,0,-2.2047,-2.2056,-2.2129,-2.2095,-2.2104,-2.2116,-2.2136,-2.2137,-2.215,-2.2166,-2.2168,-2.215,-2.2182,-2.2189,-2.2233,-2.2257,-2.2212,-2.2215,-2.2348,-2.2351,-2.2353,-2.2381,0,0,0,0,0,0,-2.2045,-2.2056,-2.2075,-2.2096,-2.2106,-2.2166,-2.2138,-2.2139,-2.2156,-2.2153,-2.2177,-2.2179,-2.2181,-2.2228,-2.2236,-2.2261,-2.2218,-2.2346,-2.2349,-2.2352,-2.2378,-2.2384,-2.239,0,0,0,0,0,-2.2041,-2.2082,-2.2076,-2.2085,-2.2131,-2.2168,-2.2174,-2.2175,-2.2158,-2.2178,-2.2188,-2.2178,-2.2254,-2.2232,-2.2241,-2.2268,-2.2344,-2.2348,-2.2352,-2.2375,-2.2383,-2.2389,0,0,0,0,0,0,-2.2064,-2.2084,-2.2078,-2.2127,-2.2146,-2.2165,-2.219,-2.2183,-2.2208,-2.2204,-2.2206,-2.2211,-2.2256,-2.2267,-2.2242,-2.232,-2.2296,-2.2302,-2.2311,-2.2318,-2.2324,-2.232,-2.2221,0,0,0,0,0,-2.2075,-2.2103,-2.2119,-2.216,-2.217,-2.2178,-2.2195,-2.2194,-2.2214,-2.2222,-2.2235,-2.2255,-2.2283,-2.2301,-2.2328,-2.238,-2.2384,-2.2403,-2.2409,-2.2413,-2.2418,-2.2446,-2.2454,-2.2367,-2.2367,-2.2367,0,0,-2.2097,-2.2112,-2.2129,-2.2165,-2.218,-2.2209,-2.2185,-2.2217,-2.2239,-2.2227,-2.2268,-2.2279,-2.2301,-2.2349,-2.237,-2.2359,-2.2443,-2.2418,-2.2422,-2.2424,-2.2451,-2.2459,-2.2466,-2.2369,-2.2369,-2.2368,0,0,-2.2153,-2.2167,-2.2202,-2.2217,-2.2239,-2.2244,-2.2253,-2.2273,-2.2279,-2.2321,-2.2312,-2.2338,-2.2387,-2.2403,-2.2418,-2.2479,-2.2471,-2.2488,-2.2519,-2.2545,-2.2552,-2.2558,-2.258,-2.2588,-2.2493,-2.2493,-2.2493,0,-2.2178,-2.2221,-2.2221,-2.2254,-2.227,-2.2259,-2.2295,-2.231,-2.234,-2.2352,-2.2338,-2.2399,-2.2413,-2.2464,-2.2479,-2.2492,-2.2501,-2.2485,-2.2551,-2.2557,-2.2563,-2.2583,-2.2592,-2.2495,-2.2495,-2.2495,-2.2494,0,-2.225,-2.228,-2.2307,-2.2335,-2.2354,-2.2388,-2.2394,-2.2413,-2.2411,-2.2418,-2.246,-2.2477,-2.2507,-2.2519,-2.2518,-2.257,-2.2562,-2.255,-2.2527,-2.2573,-2.2592,-2.26,-2.2498,-2.2497,-2.2496,-2.2496,0,0,-2.2322,-2.2349,-2.2359,-2.2371,-2.2395,-2.2418,-2.2452,-2.248,-2.2497,-2.2518,-2.2546,-2.2588,-2.2576,-2.2593,-2.2593,-2.2617,-2.2664,-2.2602,-2.2603,-2.2613,-2.2722,-2.2731,-2.274,-2.2659,-2.2661,-2.2662,-2.272,0,-2.2378,-2.2437,-2.2438,-2.2492,-2.2519,-2.251,-2.2539,-2.2557,-2.2565,-2.259,-2.2598,-2.2627,-2.2611,-2.262,-2.2644,-2.2654,-2.2686,-2.265,-2.2686,-2.2687,-2.268,-2.275,-2.2759,-2.2813,-2.2728,-2.2729,-2.273,0,-2.2452,-2.2475,-2.2531,-2.255,-2.2562,-2.2588,-2.2614,-2.2638,-2.2658,-2.2662,-2.268,-2.2677,-2.2712,-2.2688,-2.2736,-2.2711,-2.2726,-2.2733,-2.2736,-2.2738,-2.2711,-2.2754,-2.283,-2.2838,-2.2742,-2.2741,-2.274,0,-2.2498,-2.2542,-2.2581,-2.2592,-2.2616,-2.2634,-2.2645,-2.2664,-2.2681,-2.2704,-2.2715,-2.2742,-2.2757,-2.2778,-2.2783,-2.2765,-2.2831,-2.2807,-2.2835,-2.2835,-2.2849,-2.2848,-2.2928,-2.286,-2.286,-2.2859,-2.2859,0,-2.2561,-2.2595,-2.2602,-2.2626,-2.2665,-2.2666,-2.2704,-2.2714,-2.273,-2.2756,-2.2751,-2.2775,-2.278,-2.2806,-2.281,-2.2849,-2.2856,-2.286,-2.2861,-2.286,-2.286,-2.287,-2.2866,-2.2862,-2.2861,-2.2861,-2.286,0,-2.2618,-2.2624,-2.2666,-2.2684,-2.2689,-2.2717,-2.2733,-2.2756,-2.2763,-2.2796,-2.2804,-2.2815,-2.2845,-2.2851,-2.2888,-2.289,-2.2936,-2.2934,-2.2929,-2.2929,-2.2956,-2.2953,-2.3045,-2.3056,-2.2981,-2.2982,-2.2983,0,-2.2657,-2.2684,-2.2704,-2.2721,-2.2732,-2.2759,-2.2776,-2.2779,-2.2797,-2.2821,-2.2842,-2.2871,-2.2895,-2.2943,-2.2955,-2.2982,-2.298,-2.301,-2.2984,-2.2983,-2.298,-2.2978,-2.298,-2.3015,-2.3016,-2.3016,-2.3017,0,-2.2727,-2.2728,-2.2752,-2.2777,-2.2797,-2.2818,-2.2837,-2.2851,-2.2856,-2.2877,-2.2907,-2.2925,-2.2962,-2.2991,-2.3019,-2.303,-2.3025,-2.3025,-2.3033,-2.3032,-2.3028,-2.303,-2.2942,-2.3023,-2.3022,-2.3022,-2.3021,-2.3021,-2.2776,-2.2798,-2.2816,-2.2843,-2.2858,-2.2876,-2.2898,-2.2907,-2.2932,-2.2961,-2.2962,-2.2995,-2.3014,-2.305,-2.3064,-2.309,-2.3081,-2.3092,-2.3095,-2.3098,-2.31,-2.3025,-2.3095,-2.3095,-2.3095,-2.3095,-2.3095,0,-2.2844,-2.2855,-2.288,-2.2906,-2.2928,-2.292,-2.2941,-2.2959,-2.2988,-2.3006,-2.3029,-2.3064,-2.3092,-2.3106,-2.3134,-2.3152,-2.315,-2.3159,-2.3158,-2.316,-2.3107,-2.3097,-2.316,-2.316,-2.316,-2.316,-2.316,-2.316,-2.2882,-2.292,-2.2923,-2.2968,-2.2979,-2.301,-2.3023,-2.3039,-2.3054,-2.3092,-2.3115,-2.3124,-2.314,-2.3169,-2.3195,-2.3198,-2.3209,-2.3219,-2.3221,-2.3171,-2.3164,-2.3158,-2.3148,-2.3222,-2.3222,-2.3272,-2.3273,-2.3273]},{"header":{"parameterUnit":"m.s-1","parameterCategory":1,"la1":30.2991,"la2":30.254,"lo1":-89.0895,"lo2":-89.0444,"dy":0.0017,"dx":0.0017,"nx":28,"ny":28,"refTime":"2024-07-07T21:00:00:Z","depth":0,"parameterNumber":3,"parameterNumberName":"V-component_of_WINDS"},"data":[0,0,0,0,0,0,0,0,0,0,0,0,0,0,0,0,0,0,0,0,0,0,0,0,0,0,0,0,0,0,0,0,0,0,0,0,0,0,0,0,0,0,0,0,0,0,0,0,0,0,0,0,0,0,0,0,0,0,4.7407,4.7407,0,4.743,4.743,4.743,4.7366,4.7364,4.7362,4.736,4.7381,4.7383,4.7386,0,0,0,0,0,0,0,0,0,0,0,0,0,4.7305,4.7307,4.7407,4.7407,4.7408,4.743,4.743,4.743,4.7366,4.7364,4.7361,4.7359,4.738,4.7383,4.7386,0,0,0,0,0,0,0,0,0,0,0,0,0,4.7341,4.7308,4.7407,4.7378,4.7376,4.743,4.743,4.743,4.7367,4.7364,4.7361,4.7358,4.7379,4.7383,4.7386,4.7468,0,0,4.7397,4.7399,0,0,0,0,0,0,0,0,4.7339,4.7344,4.7382,4.738,4.7378,4.7392,4.7402,4.7443,4.7367,4.737,4.736,4.7356,4.7387,4.739,4.74,4.7469,4.747,4.7398,4.74,4.7401,4.7402,0,0,0,0,0,0,0,4.7336,4.7343,4.7416,4.7383,4.738,4.7363,4.7365,4.7409,4.7395,4.737,4.7365,4.7369,4.7385,4.7397,4.74,4.747,4.7398,4.7401,4.7403,4.7404,4.7605,4.7608,0,0,0,0,0,0,4.7338,4.7341,4.7415,4.7417,4.7351,4.7368,4.7369,4.739,4.7394,4.7392,4.7371,4.7366,4.7392,4.7396,4.7401,4.7495,4.7401,4.7405,4.7407,4.7602,4.7606,4.7609,0,0,0,0,0,0,4.7336,4.7345,4.7414,4.7378,4.7385,4.7372,4.7396,4.7392,4.7404,4.7395,4.7392,4.7386,4.739,4.7396,4.7452,4.7495,4.7406,4.741,4.7598,4.7603,4.7608,4.7686,0,0,0,0,0,0,4.7333,4.7345,4.7377,4.7379,4.7388,4.7466,4.7399,4.7395,4.7411,4.7404,4.7409,4.7407,4.7388,4.7447,4.7455,4.7499,4.7413,4.7594,4.7601,4.7606,4.7679,4.7693,4.7704,0,0,0,0,0,4.733,4.7398,4.7379,4.7388,4.7427,4.7469,4.7473,4.7451,4.7415,4.7446,4.744,4.7406,4.749,4.7453,4.7462,4.7507,4.7592,4.7599,4.7606,4.7674,4.769,4.7704,0,0,0,0,0,0,4.74,4.7398,4.7376,4.7447,4.7459,4.7458,4.7496,4.747,4.7491,4.7483,4.7455,4.7456,4.7517,4.7518,4.7477,4.7586,4.7534,4.7543,4.7583,4.7598,4.761,4.7608,4.7416,0,0,0,0,0,4.7424,4.7459,4.7454,4.7517,4.7524,4.751,4.7527,4.7509,4.7519,4.7523,4.7521,4.7532,4.756,4.7579,4.7605,4.768,4.7679,4.7715,4.7728,4.7738,4.7746,4.7783,4.7799,4.7633,4.7633,4.7633,0,0,4.7474,4.7476,4.75,4.7531,4.7538,4.7573,4.7514,4.7554,4.7579,4.7529,4.7581,4.7581,4.759,4.7656,4.7684,4.7658,4.7792,4.7747,4.7755,4.7757,4.7792,4.7808,4.7822,4.7638,4.7637,4.7636,0,0,4.7581,4.7588,4.764,4.7648,4.7659,4.7649,4.7661,4.7664,4.7662,4.7714,4.7676,4.7706,4.7756,4.7764,4.7774,4.7884,4.7854,4.7894,4.7958,4.7995,4.8008,4.8019,4.8057,4.8071,4.7902,4.7902,4.7902,0,4.7641,4.7694,4.767,4.7713,4.7727,4.7683,4.7735,4.7744,4.7762,4.7772,4.7743,4.7804,4.7808,4.7873,4.79,4.7911,4.7923,4.7892,4.8008,4.8019,4.803,4.8065,4.8079,4.7907,4.7906,4.7906,4.7905,0,4.7766,4.7803,4.7843,4.7862,4.7881,4.7928,4.7911,4.7932,4.7913,4.7905,4.7958,4.7961,4.7985,4.8,4.7982,4.8063,4.8046,4.8013,4.796,4.8051,4.8083,4.8097,4.7913,4.7912,4.791,4.7909,0,0,4.7918,4.7923,4.7939,4.7946,4.7955,4.7982,4.8026,4.8051,4.8069,4.8084,4.8119,4.8162,4.8131,4.8143,4.8125,4.8158,4.8242,4.8121,4.812,4.8141,4.833,4.8353,4.8369,4.8223,4.8225,4.8227,4.8328,0,4.8023,4.8099,4.8079,4.8155,4.8187,4.8146,4.8184,4.8193,4.8187,4.8213,4.8206,4.8236,4.8195,4.8201,4.8232,4.8226,4.8279,4.8218,4.8254,4.8255,4.8251,4.8387,4.8412,4.8507,4.8341,4.8343,4.8345,0,4.8156,4.8175,4.8254,4.8255,4.8268,4.8303,4.8323,4.8349,4.8358,4.8351,4.8364,4.8339,4.8381,4.833,4.8387,4.8346,4.8359,4.8358,4.8361,4.8362,4.8304,4.839,4.8537,4.8551,4.8365,4.8363,4.8362,0,4.8257,4.8302,4.8355,4.8363,4.8367,4.8392,4.8394,4.84,4.8416,4.8433,4.8442,4.8465,4.8476,4.8494,4.8475,4.8439,4.8534,4.8481,4.8528,4.8529,4.8549,4.8547,4.8698,4.8561,4.856,4.856,4.856,0,4.8375,4.8424,4.84,4.8432,4.8486,4.8462,4.8515,4.8513,4.8518,4.8548,4.8515,4.8543,4.8518,4.8544,4.8529,4.8578,4.8584,4.8578,4.8574,4.858,4.8581,4.8588,4.858,4.8564,4.8563,4.8562,4.8562,0,4.8497,4.8483,4.8537,4.8536,4.8536,4.8576,4.8574,4.8603,4.8595,4.8633,4.8641,4.8627,4.8656,4.864,4.867,4.866,4.8722,4.8709,4.8719,4.8715,4.8762,4.8757,4.8921,4.8941,4.8792,4.8794,4.8795,0,4.8572,4.8609,4.8612,4.863,4.8634,4.8664,4.8679,4.8656,4.8674,4.8686,4.8713,4.8739,4.8759,4.8807,4.8799,4.8821,4.8808,4.8864,4.8811,4.8816,4.8806,4.8804,4.8806,4.8874,4.8876,4.8877,4.8878,0,4.8707,4.8698,4.8722,4.8743,4.8763,4.8778,4.8791,4.8807,4.8784,4.8805,4.8835,4.885,4.888,4.8906,4.8925,4.8926,4.8898,4.8895,4.8907,4.8913,4.8917,4.8913,4.8746,4.8891,4.889,4.8889,4.8888,4.8888,4.8807,4.8837,4.8843,4.887,4.8877,4.889,4.8916,4.8911,4.8935,4.8958,4.8943,4.8977,4.8983,4.9005,4.901,4.9036,4.9013,4.9031,4.9035,4.9039,4.9045,4.8914,4.904,4.9039,4.9039,4.9039,4.9038,0,4.8939,4.894,4.8966,4.8984,4.9005,4.8977,4.899,4.9009,4.9039,4.9048,4.9067,4.91,4.9125,4.9119,4.9141,4.9162,4.915,4.9169,4.9166,4.9167,4.9065,4.9052,4.9178,4.9178,4.9178,4.9178,4.9178,4.9178,4.901,4.9059,4.905,4.9101,4.9102,4.9136,4.9145,4.9155,4.9162,4.92,4.922,4.9216,4.9218,4.924,4.9261,4.9258,4.9267,4.9291,4.9283,4.9188,4.9174,4.9161,4.9148,4.9293,4.9293,4.9383,4.9383,4.9384]}]]